SR2ST-13 Weather Reports


time (UTC)temp
F
wind
direction
speed
knots
gust
knots
rain 1hr
in
rain 24hr
in
rain mn
in
humidity
%
barometer
mb
20260905211416 53 101 0.0 2.6 0.00 0.54 0.31 95 1014.6
20260905210416 53 103 0.0 2.6 0.00 0.54 0.31 96 1014.7
20260905205416 53 105 0.0 2.6 0.00 0.54 0.31 96 1014.7
20260905204347 53 105 0.0 2.6 0.00 0.54 0.31 96 1014.8
20260905203346 53 105 0.0 1.7 0.00 0.54 0.31 96 1014.6
20260905202346 53 104 0.0 2.6 0.00 0.54 0.31 97 1014.4
20260905201316 53 103 0.0 3.5 0.00 0.54 0.31 96 1014.4
20260905200316 53 126 0.0 2.6 0.00 0.54 0.31 97 1014.5
20260905195246 53 111 0.0 1.7 0.00 0.54 0.31 97 1014.3
20260905194246 53 103 0.0 2.6 0.00 0.54 0.31 97 1014.4
20260905193246 53 106 0.0 5.2 0.00 0.54 0.31 97 1014.1
20260905192246 53 112 0.0 1.7 0.00 0.54 0.31 97 1014.0
20260905191246 53 111 0.0 5.2 0.00 0.54 0.31 96 1013.9
20260905190246 54 104 0.9 5.2 0.00 0.54 0.31 96 1014.1
20260905185246 54 104 0.9 5.2 0.00 0.54 0.31 95 1014.1
20260905184216 53 97 0.0 2.6 0.00 0.54 0.31 96 1013.7
20260905183146 53 90 0.0 2.6 0.00 0.54 0.31 96 1013.8
20260905182146 54 105 0.0 1.7 0.00 0.54 0.31 96 1013.8
20260905181146 54 107 0.0 3.5 0.00 0.54 0.31 96 1013.8
20260905180116 54 106 0.0 2.6 0.01 0.54 0.31 97 1013.4
20260905175116 54 112 0.0 2.6 0.02 0.54 0.31 96 1013.5
20260905174116 54 100 0.0 3.5 0.05 0.54 0.31 96 1013.3
20260905173046 54 106 0.0 2.6 0.11 0.54 0.31 96 1013.3
20260905172045 55 112 0.0 2.6 0.11 0.54 0.31 95 1012.9
20260905171046 55 111 0.0 1.7 0.12 0.54 0.31 96 1013.2
20260905170046 55 101 0.0 3.5 0.16 0.53 0.30 95 1012.9
20260905165045 55 117 0.9 3.5 0.18 0.50 0.28 96 1013.1
20260905164046 55 98 0.9 3.5 0.21 0.57 0.25 95 1013.2
20260905163046 55 112 0.0 2.6 0.15 0.55 0.20 95 1013.3
20260905162045 56 117 0.0 1.7 0.15 0.55 0.20 95 1013.0
20260905161046 56 113 0.0 2.6 0.12 0.53 0.17 93 1012.9
20260905155045 59 113 1.7 9.6 0.04 0.44 0.09 84 1013.1
20260905154046 63 117 0.0 2.6 0.00 0.40 0.04 71 1012.5
20260905153015 63 98 0.9 5.2 0.00 0.40 0.04 70 1012.4
20260905152016 64 100 1.7 7.0 0.00 0.40 0.04 68 1012.1
20260905151015 64 106 1.7 14.8 0.00 0.40 0.04 67 1012.2
20260905150015 65 116 2.6 9.6 0.00 0.40 0.04 65 1012.2
20260905145017 65 117 1.7 8.7 0.00 0.40 0.04 65 1012.1
20260905144015 64 97 1.7 7.0 0.00 0.40 0.04 69 1011.9
20260905143015 62 109 1.7 8.7 0.00 0.40 0.04 76 1011.9
20260905141945 64 99 2.6 9.6 0.00 0.40 0.04 71 1011.8
20260905140946 66 115 2.6 9.6 0.00 0.40 0.04 62 1011.5
20260905135946 66 102 3.5 11.3 0.00 0.40 0.04 64 1011.5
20260905134945 68 94 2.6 8.7 0.00 0.40 0.04 59 1011.6
20260905133915 68 91 3.5 13.0 0.00 0.40 0.04 57 1011.6
20260905132915 69 102 2.6 9.6 0.00 0.40 0.04 59 1011.6
20260905130915 68 94 1.7 8.7 0.00 0.40 0.04 62 1011.2
20260905125915 68 105 1.7 9.6 0.00 0.40 0.04 65 1011.2
20260905124916 67 106 1.7 7.8 0.00 0.40 0.04 62 1011.4
20260905123915 68 123 2.6 9.6 0.00 0.40 0.04 60 1011.4
20260905121915 68 107 1.7 8.7 0.00 0.40 0.04 59 1011.6
20260905120915 68 103 1.7 8.7 0.00 0.40 0.04 58 1011.7
20260905115845 67 110 1.7 7.0 0.00 0.40 0.04 58 1011.5
20260905114815 68 96 2.6 10.4 0.00 0.40 0.04 58 1011.3
20260905113745 69 113 1.7 7.0 0.00 0.40 0.04 55 1011.3
20260905112715 67 101 1.7 7.0 0.00 0.40 0.04 59 1011.7
20260905111645 67 110 2.6 9.6 0.00 0.40 0.04 59 1011.6
20260905110645 67 101 2.6 8.7 0.00 0.40 0.04 59 1011.6
20260905105646 67 104 1.7 7.8 0.00 0.40 0.04 60 1011.7
20260905104615 65 92 1.7 5.2 0.00 0.40 0.04 64 1011.5
20260905103545 64 103 1.7 10.4 0.00 0.40 0.04 65 1011.7
20260905102515 64 147 1.7 7.0 0.00 0.40 0.04 64 1011.8
20260905101445 64 145 1.7 8.7 0.00 0.40 0.04 65 1011.6
20260905100445 64 99 1.7 7.0 0.00 0.40 0.04 64 1011.5
20260905095345 66 123 2.6 14.8 0.00 0.40 0.04 61 1011.3
20260905094345 65 127 2.6 13.0 0.00 0.40 0.04 59 1011.4
20260905093315 64 107 1.7 7.8 0.00 0.40 0.04 64 1011.6
20260905092315 65 111 2.6 11.3 0.00 0.40 0.04 63 1011.3
20260905091315 66 105 2.6 9.6 0.00 0.40 0.04 62 1011.1
20260905090245 65 99 2.6 8.7 0.00 0.40 0.04 64 1011.2
20260905085245 64 111 2.6 10.4 0.00 0.40 0.04 66 1011.0
20260905084246 63 127 1.7 5.2 0.00 0.40 0.04 67 1010.8
20260905083245 64 132 1.7 7.0 0.00 0.40 0.04 67 1011.0
20260905082215 64 108 1.7 8.7 0.00 0.40 0.04 65 1010.7
20260905081215 63 108 1.7 8.7 0.00 0.40 0.04 67 1010.6
20260905080215 63 127 3.5 13.0 0.00 0.40 0.04 66 1010.4
20260905075215 62 122 3.5 11.3 0.00 0.40 0.04 68 1010.4
20260905074216 63 110 3.5 14.8 0.00 0.40 0.04 68 1010.2
20260905073215 62 112 2.6 14.8 0.00 0.40 0.04 71 1010.1
20260905072215 63 131 1.7 7.8 0.00 0.40 0.04 72 1010.0
20260905071145 62 114 1.7 8.7 0.00 0.40 0.04 74 1009.9
20260905070145 62 115 2.6 8.7 0.00 0.40 0.04 76 1009.9
20260905065145 61 103 1.7 8.7 0.00 0.40 0.04 77 1009.7
20260905064145 61 107 1.7 7.0 0.00 0.40 0.04 77 1009.5
20260905063145 61 96 1.7 8.7 0.00 0.40 0.04 79 1009.3
20260905062145 61 90 1.7 7.8 0.00 0.40 0.04 78 1009.4
20260905061145 60 106 0.9 5.2 0.00 0.40 0.04 80 1009.2
20260905060145 60 122 1.7 7.0 0.00 0.40 0.04 82 1009.3
20260905055145 59 98 2.6 9.6 0.00 0.40 0.04 83 1009.1
20260905054145 59 95 1.7 7.0 0.00 0.40 0.04 84 1009.1
20260905053115 59 111 0.9 5.2 0.00 0.40 0.04 84 1009.0
20260905052115 58 122 0.9 7.8 0.00 0.40 0.04 85 1008.8
20260905051045 57 107 0.9 7.0 0.00 0.40 0.04 86 1008.8
20260905050045 57 125 0.9 7.0 0.00 0.40 0.04 87 1008.8
20260905045045 57 121 0.9 5.2 0.00 0.40 0.04 86 1008.6
20260905043045 56 113 0.9 5.2 0.00 0.40 0.04 88 1008.1
20260905042045 56 108 0.9 5.2 0.00 0.40 0.04 87 1008.2
20260905041045 56 105 0.9 5.2 0.00 0.40 0.04 87 1007.9
20260905035045 56 111 0.9 5.2 0.00 0.40 0.04 87 1007.5
20260905034046 56 117 0.9 5.2 0.00 0.40 0.04 87 1007.8
20260905033045 57 102 0.9 3.5 0.00 0.40 0.04 86 1007.8
20260905032045 57 105 1.7 7.0 0.00 0.40 0.04 86 1007.5
20260905031015 57 118 0.9 7.8 0.00 0.40 0.04 86 1007.9
20260905030015 57 111 0.9 5.2 0.00 0.40 0.04 86 1007.6
20260905025015 57 104 0.9 7.0 0.00 0.40 0.04 85 1007.5
20260905023945 57 103 1.7 7.8 0.00 0.40 0.04 86 1007.4
20260905022945 57 105 1.7 9.6 0.00 0.40 0.04 87 1007.4
20260905021915 57 106 0.9 5.2 0.00 0.40 0.04 89 1007.3
20260905020915 57 125 0.9 2.6 0.00 0.40 0.04 88 1006.8
20260905015845 58 121 0.9 5.2 0.00 0.40 0.04 86 1006.8
20260905014845 58 114 0.9 7.8 0.00 0.40 0.04 83 1006.8
20260905013845 58 125 0.9 5.2 0.00 0.40 0.04 82 1006.4
20260905012815 59 128 1.7 7.0 0.00 0.40 0.04 82 1006.6
20260905011815 59 115 1.7 7.8 0.00 0.40 0.04 82 1006.8
20260905010745 59 119 1.7 9.6 0.00 0.40 0.04 82 1006.6
20260905005745 59 122 1.7 9.6 0.00 0.40 0.04 83 1006.3
20260905004745 59 127 0.9 5.2 0.00 0.40 0.04 86 1006.1
20260905003716 59 146 0.9 5.2 0.00 0.40 0.04 88 1005.7
20260905002645 59 109 1.7 7.8 0.00 0.40 0.04 86 1006.0
20260905001645 59 113 0.9 7.8 0.00 0.40 0.04 87 1005.8
20260905000615 59 122 0.9 5.2 0.00 0.40 0.04 87 1005.6
20260904235545 60 118 1.7 7.0 0.00 0.40 0.04 90 1005.1
20260904234545 59 152 0.9 3.5 0.00 0.40 0.04 94 1004.9
20260904233545 60 107 0.9 2.6 0.00 0.40 0.04 94 1005.0
20260904232545 59 103 0.0 3.5 0.00 0.40 0.04 94 1005.0
20260904231545 60 105 0.9 5.2 0.00 0.40 0.04 93 1004.9
20260904230545 60 137 1.7 9.6 0.01 0.40 0.04 92 1004.6
20260904225545 61 161 1.7 9.6 0.09 0.40 0.04 91 1004.5
20260904224545 61 111 1.7 5.2 0.16 0.40 0.04 94 1004.5
20260904223545 61 107 1.7 5.2 0.25 0.40 0.04 95 1004.5
20260904222545 61 113 0.9 5.2 0.27 0.40 0.04 96 1004.2
20260904221545 61 115 1.7 8.7 0.27 0.40 0.04 95 1004.0
20260904220545 61 111 1.7 7.8 0.25 0.38 0.03 96 1003.9
20260904215545 61 99 0.9 7.8 0.17 0.30 0.30 96 1003.6
20260904214545 62 102 0.0 2.6 0.10 0.23 0.23 96 1003.6
20260904213545 62 112 0.0 1.7 0.01 0.14 0.14 93 1003.2
20260904212545 62 112 0.0 1.7 0.00 0.12 0.12 93 1003.3